COSMOS 2520 (42907 NORAD) Tracking and Keplerian Element Data

This shows tracking and keplerian element data for the satellite.

Feedback or suggestion? Click here.




ElementValue
Catalog42907
NameCOSMOS 2520
Epoch Orbit1260
Epoch Day21.06507675
Epoch Year2021
RAAN106.0353
Inclination0.0256
Eccentricity4.41E-05
Argument of Perigee239.7839
Mean Anonmoly203.2438
Mean Motion1.0027454
Decay Rate1.46E-06
L11 42907U 17046A 21021.06507675 .00000146 00000-0 00000+0 0 9992
L22 42907 0.0256 106.0353 0000441 239.7839 203.2438 1.00274540 12609

Live tracking and technical data element details for COSMOS 2520 (NORAD 42907). COSMOS 2520 can be tracked NOW for your location showing map with azimuth and elevation plus other details from your city location.

Track the satellite on the map from your city or location and see movement details for azimuth, elevation, latitude, longitude, range, height, and movement on the map or in text.







IsCatalogInMostPopularTable: catalog: 42907, numindb: 531
Update: records affected: 1



GetName: 42907 COSMOS 2520

Hit Count: updated at: Sat, 23 Jan 2021 05:18:45 GMT